Regional Weather Roundup
Issued by NWS

Home | Current Version | Previous Version | Graphics & Text | Print | Product List | Glossary On
Versions: 1 2 3 4 5 6 7 8 9 10 11 12 13 14 15 16 17 18 19 20 21 22 23 24 25 26 27 28 29 30 31 32 33 34 35 36 37 38 39 40 41 42 43 44 45 46 47 48 49 50
338
ASUS43 KBIS 211702
RWRND

NORTH DAKOTA REGIONAL WEATHER ROUNDUP
NATIONAL WEATHER SERVICE BISMARCK ND
1200 PM CDT THU SEP 21 2017

NOTE: "FAIR" INDICATES FEW OR NO CLOUDS BELOW 12,000 FEET WITH NO
SIGNIFICANT WEATHER AND/OR OBSTRUCTIONS TO VISIBILITY.


NDZ001>003-009>011-017-211800-
NORTHWEST NORTH DAKOTA

CITY           SKY/WX    TMP DP  RH WIND       PRES   REMARKS
WILLISTON      LGT RAIN  52  46  80 CALM      29.71S
MINOT          CLOUDY    62  46  55 N5        29.69F
MINOT AFB      CLOUDY    62  42  47 E6        29.68F
$$

NDZ018>021-031>035-040>046-211800-
SOUTHWEST NORTH DAKOTA

CITY           SKY/WX    TMP DP  RH WIND       PRES   REMARKS
BISMARCK       SUNNY     73  51  46 S23G29    29.67F
DICKINSON      CLOUDY    64  39  39 N12       29.69R
GARRISON         N/A     62  45  53 S5        29.69R
HETTINGER ARPT SUNNY     67  40  37 N5        29.69R
$$

NDZ004>008-012>016-024-026-027-054-211800-
NORTHEAST NORTH DAKOTA

CITY           SKY/WX    TMP DP  RH WIND       PRES   REMARKS
GRAND FORKS    MOSUNNY   72  51  47 S18G28    29.79F
GRND FRKS AFB  SUNNY     71  48  44 S20G28    29.79F
DEVILS LAKE    PTSUNNY   66  47  50 S14       29.74F
$$

NDZ022-023-025-028>030-036>039-047>053-211800-
SOUTHEAST NORTH DAKOTA

CITY           SKY/WX    TMP DP  RH WIND       PRES   REMARKS
FARGO          SUNNY     72  47  40 S20G25    29.81S
JAMESTOWN      SUNNY     71  49  45 S21G28    29.75F
$$





USA.gov is the U.S. government's official web portal to all federal, state and local government web resources and services.